W1NJC Weather Reports


Display with metric or nautical units.
time (UTC)temp
F
wind
direction
speed
MPH
gust
MPH
rain 1hr
in
rain 24hr
in
rain mn
in
humidity
%
barometer
mb
20260505124503 59 199 3.0 9.0 0.00 0.00 0.00 73 1009.4
20260505123603 60 205 4.0 12.0 0.00 0.00 0.00 73 1009.6
20260505122703 60 211 5.0 17.0 0.00 0.00 0.00 72 1009.5
20260505121803 60 218 3.0 14.0 0.00 0.00 0.00 74 1009.5
20260505120903 59 226 4.0 10.0 0.00 0.00 0.00 76 1009.2
20260505120003 58 207 3.0 8.0 0.00 0.00 0.00 78 1009.1
20260505115403 57 194 3.0 8.0 0.00 0.00 0.00 79 1009.4
20260505114503 56 188 4.0 11.0 0.00 0.00 0.00 80 1009.2
20260505113603 56 212 3.0 11.0 0.00 0.00 0.00 82 1009.3
20260505112703 55 201 2.0 10.0 0.00 0.00 0.00 83 1009.1
20260505111824 54 193 2.0 8.0 0.00 0.00 0.00 84 1009.2
20260505110903 54 177 2.0 7.0 0.00 0.00 0.00 86 1009.1
20260505101803 50 223 0.0 3.0 0.00 0.00 0.00 90 1008.9
20260505100903 50 0 0.0 0.0 0.00 0.00 0.00 90 1008.8
20260505100003 49 229 0.0 3.0 0.00 0.00 0.00 90 1008.8
20260505095403 49 0 0.0 0.0 0.00 0.00 0.00 90 1008.8
20260505094503 49 223 0.0 4.0 0.00 0.00 0.00 90 1008.8
20260505093603 49 223 0.0 4.0 0.00 0.00 0.00 91 1008.7
20260505092703 49 0 0.0 0.0 0.00 0.00 0.00 90 1008.8
20260505091803 48 254 0.0 5.0 0.00 0.00 0.00 91 1008.9
20260505090907 48 225 1.0 4.0 0.00 0.00 0.00 91 1009.0
20260505090024 47 222 0.0 4.0 0.00 0.00 0.00 92 1009.0
20260505085403 47 220 0.0 2.0 0.00 0.00 0.00 92 1009.0
20260505084503 47 0 0.0 0.0 0.00 0.00 0.00 91 1009.0
20260505083603 47 220 0.0 3.0 0.00 0.00 0.00 91 1009.1
20260505082703 47 0 0.0 0.0 0.00 0.00 0.00 91 1009.0
20260505081824 47 0 0.0 0.0 0.00 0.00 0.00 90 1009.1
20260505080903 47 0 0.0 4.0 0.00 0.00 0.00 90 1009.2
20260505080003 47 0 0.0 0.0 0.00 0.00 0.00 90 1009.2
20260505075403 46 0 0.0 0.0 0.00 0.00 0.00 90 1009.3
20260505074503 47 0 0.0 0.0 0.00 0.00 0.00 89 1009.3
20260505073603 47 0 0.0 0.0 0.00 0.00 0.00 88 1009.3
20260505072704 47 220 0.0 1.0 0.00 0.00 0.00 89 1009.2
20260505071803 47 220 0.0 4.0 0.00 0.00 0.00 88 1009.2
20260505070903 47 0 0.0 0.0 0.00 0.00 0.00 87 1009.4
20260505070003 47 0 0.0 0.0 0.00 0.00 0.00 87 1009.5
20260505065424 47 0 0.0 0.0 0.00 0.00 0.00 86 1009.5
20260505064503 47 0 0.0 0.0 0.00 0.00 0.00 86 1009.5
20260505063603 48 0 0.0 0.0 0.00 0.00 0.00 86 1009.5
20260505062703 48 0 0.0 1.0 0.00 0.00 0.00 85 1009.7
20260505061803 48 0 0.0 1.0 0.00 0.00 0.00 84 1009.7
20260505060903 49 220 0.0 3.0 0.00 0.00 0.00 83 1009.6
20260505060003 49 220 0.0 3.0 0.00 0.00 0.00 83 1009.7
20260505055424 49 220 0.0 3.0 0.00 0.00 0.00 82 1009.6
20260505054503 50 0 0.0 0.0 0.00 0.00 0.00 81 1009.7
20260505053603 50 0 0.0 0.0 0.00 0.00 0.00 79 1009.7
20260505052724 51 220 0.0 4.0 0.00 0.00 0.00 79 1009.7
20260505051803 51 219 0.0 4.0 0.00 0.00 0.00 79 1009.7
20260505050903 52 218 0.0 4.0 0.00 0.00 0.00 78 1009.8
20260505040903 53 200 1.0 8.0 0.00 0.00 0.00 75 1009.9
20260505040004 53 226 1.0 13.0 0.00 0.00 0.00 74 1009.9
20260505035403 53 224 1.0 13.0 0.00 0.00 0.00 74 1009.8
20260505034524 53 208 1.0 7.0 0.00 0.00 0.00 73 1009.7
20260505033603 54 175 1.0 6.0 0.00 0.00 0.00 72 1009.7
20260505032703 54 220 1.0 9.0 0.00 0.00 0.00 72 1009.6
20260505031803 54 206 1.0 9.0 0.00 0.00 0.00 71 1009.6
20260505030903 54 238 1.0 10.0 0.00 0.00 0.00 70 1009.6
20260505030003 54 232 1.0 11.0 0.00 0.00 0.00 69 1009.6
20260505025403 55 228 2.0 10.0 0.00 0.00 0.00 69 1009.6
20260505024503 55 183 2.0 10.0 0.00 0.00 0.00 68 1009.5
20260505023624 55 200 2.0 9.0 0.00 0.00 0.00 67 1009.6
20260505022703 55 211 3.0 9.0 0.00 0.00 0.00 66 1009.6
20260505021803 56 207 3.0 11.0 0.00 0.00 0.00 65 1009.7
20260505020903 56 210 3.0 11.0 0.00 0.00 0.00 64 1009.7
20260505020003 56 223 3.0 14.0 0.00 0.00 0.00 63 1009.7
20260505015424 56 196 3.0 14.0 0.00 0.00 0.00 63 1009.6
20260505014503 56 221 3.0 17.0 0.00 0.00 0.00 62 1009.4
20260505013603 56 226 4.0 11.0 0.00 0.00 0.00 62 1009.5
20260505012703 57 219 3.0 9.0 0.00 0.00 0.00 61 1009.5
20260505011824 57 212 3.0 12.0 0.00 0.00 0.00 60 1009.3
20260505010903 57 218 3.0 8.0 0.00 0.00 0.00 59 1009.2
20260505010024 58 204 2.0 7.0 0.00 0.00 0.00 58 1009.0
20260505005424 58 212 3.0 11.0 0.00 0.00 0.00 57 1008.8
20260505004503 59 213 3.0 10.0 0.00 0.00 0.00 56 1008.8
20260505003603 59 213 3.0 8.0 0.00 0.00 0.00 55 1008.6
20260505002704 59 216 2.0 12.0 0.00 0.00 0.00 53 1008.4
20260505001803 60 202 3.0 8.0 0.00 0.00 0.00 52 1008.2
20260505000903 60 226 4.0 11.0 0.00 0.00 0.00 51 1008.0
20260505000003 61 220 3.0 12.0 0.00 0.00 0.00 50 1007.9
20260504235403 61 222 2.0 12.0 0.00 0.00 0.00 50 1007.8
20260504234524 62 209 4.0 11.0 0.00 0.00 0.00 48 1007.7
20260504233603 62 203 4.0 17.0 0.00 0.00 0.00 48 1007.5
20260504232703 63 195 3.0 11.0 0.00 0.00 0.00 47 1007.5
20260504231803 63 198 5.0 18.0 0.00 0.00 0.00 47 1007.3
20260504230903 64 203 5.0 15.0 0.00 0.00 0.00 45 1007.2
20260504230003 64 209 5.0 17.0 0.00 0.00 0.00 44 1007.2
20260504225403 64 177 4.0 16.0 0.00 0.00 0.00 45 1007.1
20260504224503 65 198 6.0 20.0 0.00 0.00 0.00 43 1006.9
20260504223603 65 208 6.0 22.0 0.00 0.00 0.00 43 1006.8
20260504222724 66 205 6.0 15.0 0.00 0.00 0.00 41 1006.8
20260504221824 67 192 3.0 16.0 0.00 0.00 0.00 40 1006.7
20260504220924 68 171 6.0 15.0 0.00 0.00 0.00 39 1006.6
20260504220003 69 191 5.0 18.0 0.00 0.00 0.00 37 1006.5
20260504215403 69 190 5.0 13.0 0.00 0.00 0.00 37 1006.6
20260504214503 70 200 5.0 18.0 0.00 0.00 0.00 36 1006.5
20260504213603 72 166 6.0 15.0 0.00 0.00 0.00 33 1006.5
20260504212703 72 196 6.0 24.0 0.00 0.00 0.00 35 1006.5
20260504211803 72 234 4.0 24.0 0.00 0.00 0.00 31 1006.5
20260504210903 72 251 4.0 11.0 0.00 0.00 0.00 30 1006.3
20260504210003 74 248 3.0 10.0 0.00 0.00 0.00 29 1006.2
20260504205403 74 229 4.0 12.0 0.00 0.00 0.00 32 1006.3
20260504204503 74 219 6.0 17.0 0.00 0.00 0.00 30 1006.2
20260504203603 74 232 5.0 24.0 0.00 0.00 0.00 28 1006.3
20260504202724 73 181 6.0 21.0 0.00 0.00 0.00 29 1006.2
20260504201824 74 223 6.0 15.0 0.00 0.00 0.00 28 1006.5
20260504200903 73 236 4.0 14.0 0.00 0.00 0.00 27 1006.4
20260504200003 74 228 5.0 13.0 0.00 0.00 0.00 29 1006.4
20260504195424 73 235 5.0 18.0 0.00 0.00 0.00 30 1006.5
20260504194503 72 220 6.0 19.0 0.00 0.00 0.00 29 1006.5
20260504193603 72 247 7.0 19.0 0.00 0.00 0.00 30 1006.4
20260504192724 72 226 6.0 19.0 0.00 0.00 0.00 28 1006.5
20260504191803 72 229 7.0 20.0 0.00 0.00 0.00 29 1006.4
20260504190903 73 236 4.0 20.0 0.00 0.00 0.00 28 1006.5
20260504190003 72 235 6.0 17.0 0.00 0.00 0.00 28 1006.6
20260504185403 72 218 6.0 15.0 0.00 0.00 0.00 29 1006.7
20260504184503 71 221 7.0 19.0 0.00 0.00 0.00 27 1007.0
20260504183603 71 226 5.0 16.0 0.00 0.00 0.00 28 1006.9
20260504182703 70 223 8.0 25.0 0.00 0.00 0.00 30 1007.1
20260504181803 70 214 9.0 26.0 0.00 0.00 0.00 29 1007.0
20260504180924 70 231 6.0 17.0 0.00 0.00 0.00 29 1007.1
20260504180003 69 226 8.0 23.0 0.00 0.00 0.00 28 1007.3
20260504175424 70 219 7.0 26.0 0.00 0.00 0.00 28 1007.3
20260504174503 70 244 8.0 19.0 0.00 0.00 0.00 29 1007.4
20260504173603 69 209 6.0 16.0 0.00 0.00 0.00 29 1007.2
20260504172703 68 236 7.0 22.0 0.00 0.00 0.00 29 1007.4
20260504171803 68 243 8.0 27.0 0.00 0.00 0.00 29 1007.4
20260504170903 68 222 7.0 19.0 0.00 0.00 0.00 29 1007.5
20260504150903 64 241 7.0 15.0 0.00 0.00 0.00 35 1008.9